Weather in Zhanatas

Kazakhstan     43˚33′16″N   69˚43′21″E
temp.,
°C
wind,
m/s
gust,
m/s
humid.,
%
clouds,
%
prec.,
mm/h
press.,
hPa
HPBL,
m
27 november, fri
fri2700:00+2˚ssw1254100 0.0 102622
03:00+2˚sse2250100 0.0 102622
06:00+2˚sse2246100 0.0 102522
09:00+3˚sse1147100 0.0 102422
12:00+4˚se3365100 0.0 102429
15:00+5˚wsw3470100 0.0 102256
18:00+4˚se2364100 0.0 102222
21:00+3˚se1265100 0.0 102222
28 november, sat
sat2800:00+4˚sw71466100 0.0 1022250
03:00+2˚sw15239498 1.3 1023852
06:00wsw13189799 9.4 1028853
09:00−1˚sw141892100 2.6 1034894
12:00−2˚sw14189171 3.7 1037893
15:00−2˚wsw12169263 1.7 1039880
18:00−2˚wsw11159358 2.8 1041600
21:00−4˚sw7119542 0.1 1043314
29 november, sun
sun2900:00−5˚sw579639 0.1 1043170
03:00−5˚wsw369579 0.0 1043231
06:00−8˚wnw019855 0.0 104422
09:00−5˚ene349391 0.1 1045384
12:00−4˚ene458894 0.1 1044436
15:00−4˚ne468690 0.0 1043464
18:00−6˚ene468978 0.0 1042101
21:00−7˚ne589478 0.0 1043163
30 november, mon
mon3000:00−8˚ene489787 0.0 1041162
03:00−8˚ene589781 0.0 1040163
06:00−8˚ene5109883 0.1 1039227
09:00−8˚ene51097100 0.1 1038285
12:00−5˚ene7119296 0.1 1037459
15:00−4˚ene8118354 0.0 1034599
18:00−6˚ene8138557 0.0 1033356
21:00−7˚ene8138978 0.0 1033381
1 december, tue
tue100:00−8˚ene8128589 0.0 1032378
03:00−9˚ene71287100 0.0 1032347
06:00−9˚ene71289100 0.0 1031342
09:00−9˚ene81391100 0.0 1032381
12:00−7˚e71188100 0.0 1032394
15:00−5˚e6984100 0.0 1032421
18:00−6˚e81285100 0.0 1032378
21:00−6˚e5892100 0.0 1033238